Location: Starhoo Observatory
(41.8578°N, 70.9669°W)
Time: 07:03:50
(UTC-04:00)

ISS - Visible Passes

Search period start: 28 March 2015 00:00
Search period end: 07 April 2015 00:00
Orbit: 396 x 406 km, 51.6° (Epoch: 28 March)

Date Brightness Start Highest point End Pass type
(mag) Time Alt. Az. Time Alt. Az. Time Alt. Az.
28 Mar -0.8 04:11:55 20° NNE 04:11:55 20° NNE 04:14:11 10° ENE visible
28 Mar -3.3 05:45:16 10° NW 05:48:30 83° NNE 05:51:43 10° ESE visible
29 Mar -2.3 04:53:33 25° NNW 04:55:06 45° NNE 04:58:12 10° ESE visible
30 Mar -0.8 04:02:45 22° ENE 04:02:45 22° ENE 04:04:27 10° E visible
30 Mar -2.9 05:35:22 13° WNW 05:38:03 42° SW 05:41:06 10° SSE visible
31 Mar -3.5 04:44:47 82° SSE 04:44:47 82° SSE 04:47:54 10° SE visible
01 Apr -1.9 05:27:08 19° SW 05:27:22 19° SW 05:29:41 10° S visible
02 Apr -0.5 21:09:42 10° SW 21:09:49 11° SW 21:09:49 11° SW visible
03 Apr -2.3 20:16:40 10° SSW 20:19:27 27° SE 20:19:59 25° ESE visible
03 Apr 0.0 21:52:39 10° W 21:52:39 10° W 21:52:39 10° W visible
04 Apr -3.1 20:58:52 10° WSW 21:02:07 68° NW 21:02:28 61° N visible
05 Apr -3.3 20:05:19 10° SW 20:08:32 62° SE 20:11:46 10° ENE visible
05 Apr -0.9 21:42:24 10° WNW 21:44:33 23° NW 21:44:33 23° NW visible
06 Apr -1.8 20:48:19 10° W 20:51:22 35° NNW 20:53:43 15° NE visible
